FW5866 Weather Reports


Display with metric or nautical units.
time (UTC)temp
F
wind
direction
speed
MPH
gust
MPH
rain 1hr
in
rain 24hr
in
rain mn
in
humidity
%
barometer
mb
20260510234600 74 0 0.0 0.0 0.00 0.00 0.00 90 1016.4
20260510233052 74 0 0.0 0.0 0.00 0.00 0.00 87 1015.9
20260510231553 75 0 0.0 0.0 0.00 0.00 0.00 87 1015.9
20260510230051 76 0 0.0 1.0 0.00 0.00 0.00 87 1015.5
20260510224557 78 0 0.0 0.0 0.00 0.01 0.00 88 1015.9
20260510223050 81 0 0.0 0.0 0.00 0.01 0.00 87 1015.7
20260510221553 83 0 0.0 1.0 0.00 0.01 0.00 89 1015.5
20260510220051 82 0 0.0 0.0 0.00 0.01 0.00 90 1015.6
20260510214554 82 0 0.0 0.0 0.00 0.19 0.00 89 1015.7
20260510213056 83 0 0.0 0.0 0.00 0.19 0.00 88 1015.9
20260510211550 83 0 0.0 0.0 0.00 0.19 0.00 89 1015.8
20260510210045 83 0 0.0 0.0 0.00 0.19 0.00 89 1015.9
20260510204541 83 0 0.0 0.0 0.00 0.27 0.00 89 1015.8
20260510203048 83 0 0.0 0.0 0.00 0.27 0.00 89 1015.6
20260510201550 83 0 0.0 1.0 0.00 0.27 0.00 90 1015.5
20260510200052 83 0 0.0 2.0 0.00 0.27 0.00 91 1015.3
20260510194550 82 0 0.0 0.0 0.00 0.44 0.00 90 1015.5
20260510193051 82 0 0.0 7.0 0.00 0.44 0.00 90 1015.5
20260510191548 82 158 2.0 7.0 0.00 0.44 0.00 91 1015.5
20260510190052 81 0 1.0 6.0 0.00 0.44 0.00 91 1015.2
20260510184611 81 0 0.0 5.0 0.00 0.64 0.00 91 1015.4
20260510183046 81 0 0.0 3.0 0.00 0.64 0.00 92 1015.6
20260510181558 80 0 0.0 5.0 0.00 0.64 0.00 93 1015.8
20260510180109 80 0 0.0 0.0 0.00 0.64 0.00 93 1016.1
20260510174547 79 0 0.0 0.0 0.00 0.90 0.00 94 1016.6
20260510173048 78 0 1.0 5.0 0.00 0.90 0.00 94 1016.8
20260510171600 78 0 0.0 5.0 0.00 0.90 0.00 95 1017.0
20260510170050 77 0 0.0 3.0 0.00 0.90 0.00 95 1017.2
20260510164549 77 0 0.0 0.0 0.00 0.92 0.00 95 1017.2
20260510163047 76 0 0.0 1.0 0.00 0.92 0.00 96 1017.1
20260510161551 75 0 0.0 2.0 0.00 0.92 0.00 96 1017.3
20260510160049 74 0 0.0 3.0 0.00 0.92 0.00 97 1017.6
20260510154609 73 0 0.0 5.0 0.00 0.92 0.00 97 1017.6
20260510153100 72 65 1.0 6.0 0.00 0.92 0.00 97 1017.7
20260510151547 71 15 0.0 7.0 0.00 0.92 0.00 97 1017.9
20260510144607 70 64 1.0 9.0 0.00 0.92 0.00 98 1017.8
20260510143045 70 0 1.0 6.0 0.00 0.92 0.00 98 1017.9
20260510141546 70 67 0.0 4.0 0.00 0.92 0.00 98 1017.7
20260510140050 69 0 0.0 4.0 0.00 0.92 0.00 98 1017.5
20260510134550 69 0 2.0 6.0 0.00 0.92 0.00 98 1017.5
20260510133052 68 84 1.0 4.0 0.00 0.92 0.00 98 1017.1
20260510131544 68 0 1.0 5.0 0.00 0.92 0.00 98 1017.0
20260510130051 68 0 0.0 5.0 0.00 0.92 0.00 98 1016.7
20260510124548 67 0 1.0 5.0 0.00 0.92 0.00 98 1016.5
20260510123055 67 55 0.0 4.0 0.00 0.92 0.00 97 1016.4
20260510121546 67 46 0.0 3.0 0.00 0.92 0.00 97 1016.3
20260510120044 67 38 0.0 4.0 0.00 0.92 0.00 97 1015.9
20260510114545 67 0 0.0 3.0 0.00 0.92 0.00 97 1015.9
20260510113048 67 56 0.0 3.0 0.00 0.92 0.00 97 1015.4
20260510111551 67 0 0.0 4.0 0.00 0.92 0.00 97 1015.2
20260510110045 67 0 1.0 4.0 0.00 0.92 0.00 97 1015.0
20260510104557 67 71 0.0 4.0 0.00 0.92 0.00 97 1014.6
20260510103048 67 91 0.0 2.0 0.00 0.92 0.00 97 1014.4
20260510101553 67 67 0.0 5.0 0.00 0.92 0.00 97 1014.2
20260510100054 67 0 0.0 5.0 0.00 0.92 0.00 97 1014.1
20260510094614 67 0 1.0 4.0 0.00 0.92 0.00 97 1013.9
20260510093052 67 0 0.0 4.0 0.00 0.92 0.00 97 1013.8
20260510091555 67 0 0.0 4.0 0.00 0.92 0.00 97 1013.6
20260510090052 68 0 0.0 4.0 0.00 0.92 0.00 97 1013.9
20260510084559 67 0 0.0 3.0 0.00 0.92 0.00 97 1013.9
20260510083111 67 50 0.0 4.0 0.00 0.92 0.00 97 1013.9
20260510081605 67 0 0.0 2.0 0.00 0.92 0.00 97 1013.8
20260510080044 67 0 0.0 0.0 0.00 0.92 0.00 97 1013.9
20260510074542 67 0 0.0 0.0 0.00 0.92 0.00 97 1013.7
20260510073051 67 0 0.0 0.0 0.00 0.92 0.00 97 1013.6
20260510071547 67 0 0.0 0.0 0.00 0.92 0.00 97 1013.5
20260510070049 67 0 0.0 0.0 0.00 0.92 0.00 97 1013.6
20260510064547 67 0 0.0 0.0 0.00 0.92 0.00 97 1013.6
20260510063046 67 0 0.0 0.0 0.00 0.92 0.00 97 1013.5
20260510061556 67 0 0.0 0.0 0.00 0.92 0.00 97 1013.7
20260510060050 67 0 0.0 0.0 0.00 0.92 0.00 97 1013.6
20260510054546 67 0 0.0 0.0 0.00 0.92 0.00 97 1013.5
20260510053056 67 0 0.0 0.0 0.00 0.92 0.00 97 1013.7
20260510051551 67 0 0.0 0.0 0.00 0.92 0.00 97 1013.7
20260510050055 67 0 0.0 0.0 0.00 0.92 0.00 97 1013.7
20260510044548 68 0 0.0 2.0 0.00 0.92 0.92 97 1013.7
20260510043053 68 0 0.0 1.0 0.00 0.92 0.92 97 1013.7
20260510041552 68 0 0.0 2.0 0.00 0.92 0.92 97 1013.9
20260510040055 68 0 0.0 5.0 0.00 0.92 0.92 97 1013.5
20260510034558 68 242 1.0 4.0 0.00 0.92 0.92 97 1013.6
20260510033046 68 0 0.0 6.0 0.00 0.92 0.92 97 1013.9
20260510031600 68 0 1.0 5.0 0.00 0.92 0.92 97 1013.6
20260510030052 68 166 1.0 6.0 0.00 0.92 0.92 97 1013.8
20260510024548 68 153 0.0 3.0 0.00 0.92 0.92 97 1014.0
20260510023049 68 0 0.0 3.0 0.00 0.92 0.92 97 1013.8
20260510021547 68 0 0.0 3.0 0.00 0.92 0.92 97 1013.6
20260510020047 68 0 0.0 4.0 0.00 0.92 0.92 97 1013.8
20260510014552 68 0 0.0 4.0 0.00 0.92 0.92 97 1013.9
20260510013050 68 0 0.0 6.0 0.00 0.92 0.92 97 1013.4
20260510011546 68 0 0.0 4.0 0.00 0.92 0.92 97 1013.5
20260510010048 68 0 0.0 4.0 0.00 0.92 0.92 97 1013.6
20260510004551 69 98 0.0 2.0 0.00 0.92 0.92 97 1013.5
20260510003051 69 0 0.0 1.0 0.00 0.92 0.92 97 1013.6
20260510001554 69 0 0.0 1.0 0.00 0.92 0.92 97 1013.5
20260510000044 68 0 0.0 2.0 0.00 0.92 0.92 97 1013.0